TimeEST,TemperatureF,Dew PointF,Humidity,Sea Level PressureIn,VisibilityMPH,Wind Direction,Wind SpeedMPH,Gust SpeedMPH,PrecipitationIn,Events,Conditions,WindDirDegrees,DateUTC
12:41 AM,33.8,24.8,70,30.29,10.0,ESE,3.5,-,N/A,,Overcast,110,2013-02-23 05:41:00
12:51 AM,33.1,25.0,72,30.29,10.0,ESE,4.6,-,N/A,,Overcast,110,2013-02-23 05:51:00
1:51 AM,33.1,24.1,70,30.28,10.0,SE,4.6,-,N/A,,Overcast,130,2013-02-23 06:51:00
2:51 AM,33.1,25.0,72,30.26,10.0,Calm,Calm,-,0.00,Snow,Light Snow,0,2013-02-23 07:51:00
3:51 AM,33.1,24.1,70,30.24,10.0,Calm,Calm,-,0.00,,Overcast,0,2013-02-23 08:51:00
4:51 AM,33.1,25.0,72,30.24,10.0,Calm,Calm,-,N/A,,Overcast,0,2013-02-23 09:51:00
5:51 AM,32.0,26.1,79,30.22,10.0,Calm,Calm,-,N/A,,Overcast,0,2013-02-23 10:51:00
6:35 AM,32.0,26.6,80,30.22,10.0,Calm,Calm,-,N/A,,Overcast,0,2013-02-23 11:35:00
6:51 AM,33.1,25.0,72,30.22,10.0,Calm,Calm,-,N/A,,Overcast,0,2013-02-23 11:51:00
7:51 AM,34.0,26.1,73,30.21,10.0,ESE,3.5,-,N/A,,Overcast,110,2013-02-23 12:51:00
8:51 AM,34.0,26.1,73,30.19,10.0,Calm,Calm,-,N/A,,Overcast,0,2013-02-23 13:51:00
9:03 AM,33.8,26.6,75,30.18,10.0,Calm,Calm,-,N/A,,Overcast,0,2013-02-23 14:03:00
9:51 AM,34.0,28.0,79,30.17,10.0,ESE,4.6,-,N/A,,Overcast,120,2013-02-23 14:51:00
10:51 AM,34.0,30.9,89,30.15,4.0,ESE,4.6,-,N/A,,Overcast,120,2013-02-23 15:51:00
11:00 AM,33.8,30.2,87,30.13,2.5,East,4.6,-,N/A,,Overcast,90,2013-02-23 16:00:00
11:26 AM,33.8,32.0,93,30.13,2.5,Calm,Calm,-,0.00,,Light Drizzle,0,2013-02-23 16:26:00
11:51 AM,34.0,32.0,92,30.12,1.5,NNE,4.6,-,0.01,,Light Drizzle,20,2013-02-23 16:51:00
12:28 PM,35.6,33.8,93,30.10,1.0,Calm,Calm,-,0.00,Rain,Light Rain,0,2013-02-23 17:28:00
12:51 PM,35.1,33.1,92,30.10,1.0,NE,3.5,-,0.01,Rain,Light Rain,40,2013-02-23 17:51:00
1:51 PM,36.0,34.0,93,30.09,1.0,ESE,4.6,-,0.02,Rain,Light Rain,110,2013-02-23 18:51:00
2:17 PM,35.6,33.8,93,30.07,1.0,East,5.8,-,0.01,Rain,Light Rain,90,2013-02-23 19:17:00
2:30 PM,35.6,33.8,93,30.06,4.0,East,4.6,-,0.02,Rain,Light Rain,100,2013-02-23 19:30:00
2:51 PM,36.0,34.0,93,30.07,4.0,East,4.6,-,0.02,,Light Drizzle,80,2013-02-23 19:51:00
3:33 PM,35.6,33.8,93,30.04,7.0,East,3.5,-,0.01,,Overcast,90,2013-02-23 20:33:00
3:51 PM,36.0,33.1,89,30.05,6.0,ENE,4.6,-,0.02,Rain,Light Rain,70,2013-02-23 20:51:00
4:09 PM,35.6,33.8,93,30.04,10.0,East,4.6,-,0.00,,Overcast,80,2013-02-23 21:09:00
4:51 PM,35.1,32.0,89,30.03,6.0,NE,5.8,-,0.01,Rain,Light Rain,40,2013-02-23 21:51:00
5:51 PM,34.0,32.0,92,30.02,10.0,NE,3.5,-,0.01,Rain,Light Rain,40,2013-02-23 22:51:00
6:04 PM,33.8,32.0,93,30.01,10.0,Calm,Calm,-,0.01,Rain-Snow,Light Rain,0,2013-02-23 23:04:00
6:51 PM,34.0,32.0,92,30.01,8.0,NNE,4.6,-,0.02,Rain,Light Rain,20,2013-02-23 23:51:00
7:51 PM,33.1,32.0,96,29.98,6.0,NNE,4.6,-,0.00,Rain,Light Rain,30,2013-02-24 00:51:00
8:00 PM,33.8,32.0,93,29.97,5.0,North,5.8,-,0.00,Rain,Light Rain,10,2013-02-24 01:00:00
8:51 PM,33.1,32.0,96,29.96,4.0,North,5.8,-,0.00,,Light Drizzle,10,2013-02-24 01:51:00
9:51 PM,34.0,32.0,92,29.94,7.0,North,9.2,-,0.00,,Overcast,360,2013-02-24 02:51:00
10:07 PM,33.8,32.0,93,29.92,2.0,North,9.2,-,0.00,,Light Drizzle,10,2013-02-24 03:07:00
10:51 PM,33.1,32.0,96,29.90,2.0,North,11.5,-,0.00,,Light Drizzle,10,2013-02-24 03:51:00
11:29 PM,33.8,32.0,93,29.87,3.0,North,11.5,-,0.00,,Light Drizzle,10,2013-02-24 04:29:00
11:51 PM,34.0,32.0,92,29.88,3.0,North,9.2,-,0.00,,Light Drizzle,350,2013-02-24 04:51:00
11:53 PM,33.8,32.0,93,29.87,3.0,North,9.2,-,0.00,,Light Drizzle,350,2013-02-24 04:53:00